[[{"header":{"parameterUnit":"m.s-1","parameterCategory":1,"la1":30.2991,"la2":30.254,"lo1":-89.0895,"lo2":-89.0444,"dy":0.0017,"dx":0.0017,"nx":28,"ny":28,"refTime":"2025-03-24T03:00:00:Z","depth":0,"parameterNumber":2,"parameterNumberName":"U-component_of_WINDS"},"data":[0,0,0,0,0,0,0,0,0,0,0,0,0,0,0,0,0,0,0,0,0,0,0,0,0,0,0,0,0,0,0,0,0,0,0,0,0,0,0,0,0,0,0,0,0,0,0,0,0,0,0,0,0,0,0,0,0,0,1.5476,1.5477,0,1.5525,1.5526,1.5526,1.5531,1.553,1.553,1.5529,1.5579,1.5581,1.5583,0,0,0,0,0,0,0,0,0,0,0,0,0,1.539,1.5391,1.5476,1.5477,1.5478,1.5525,1.5526,1.5526,1.5531,1.553,1.553,1.5529,1.5579,1.5581,1.5583,0,0,0,0,0,0,0,0,0,0,0,0,0,1.5432,1.5392,1.5476,1.5486,1.5487,1.5525,1.5526,1.5526,1.5531,1.553,1.5529,1.5529,1.5578,1.5581,1.5583,1.5615,0,0,1.5591,1.5593,0,0,0,0,0,0,0,0,1.5429,1.5435,1.5484,1.5485,1.5487,1.5521,1.5513,1.5556,1.5531,1.5514,1.5529,1.5528,1.556,1.5565,1.5575,1.5617,1.562,1.5592,1.5593,1.5595,1.5595,0,0,0,0,0,0,0,1.5427,1.5433,1.5496,1.5484,1.5486,1.5488,1.5493,1.5522,1.5541,1.5516,1.5516,1.5522,1.5561,1.5573,1.5577,1.562,1.5592,1.5594,1.5596,1.5597,1.5694,1.5695,0,0,0,0,0,0,1.5422,1.5431,1.5494,1.5497,1.5456,1.549,1.5496,1.5511,1.5541,1.5545,1.5522,1.5522,1.5568,1.5573,1.5578,1.5619,1.5594,1.5597,1.5599,1.5693,1.5694,1.5695,0,0,0,0,0,0,1.542,1.5427,1.5492,1.5464,1.5472,1.5493,1.5509,1.5512,1.5524,1.5546,1.5549,1.553,1.5568,1.5575,1.5607,1.5621,1.5598,1.5601,1.5692,1.5693,1.5695,1.57,0,0,0,0,0,0,1.5417,1.5427,1.5438,1.5464,1.5474,1.5519,1.551,1.5514,1.5528,1.5528,1.5554,1.5558,1.5568,1.5603,1.5609,1.5624,1.5603,1.5691,1.5693,1.5694,1.5699,1.5702,1.5704,0,0,0,0,0,1.5414,1.5437,1.5439,1.5446,1.5489,1.552,1.5525,1.5536,1.5529,1.5542,1.5557,1.5557,1.5619,1.5606,1.5613,1.5629,1.569,1.5692,1.5694,1.5698,1.5701,1.5704,0,0,0,0,0,0,1.5412,1.5441,1.5443,1.5475,1.5495,1.552,1.5536,1.5539,1.5561,1.556,1.5573,1.5579,1.5611,1.5623,1.5609,1.5663,1.5654,1.5657,1.5654,1.5657,1.566,1.5656,1.5605,0,0,0,0,0,1.5415,1.5437,1.5462,1.5488,1.5498,1.5515,1.5529,1.5536,1.5557,1.5566,1.5582,1.5603,1.5628,1.5643,1.5666,1.5701,1.5708,1.5716,1.5719,1.5721,1.5724,1.5745,1.575,1.5702,1.5702,1.5702,0,0,1.5422,1.544,1.5453,1.5488,1.5504,1.5528,1.5522,1.5547,1.5565,1.5569,1.5601,1.5614,1.5639,1.5673,1.5689,1.5684,1.5739,1.5724,1.5725,1.5727,1.5748,1.5753,1.5756,1.5704,1.5704,1.5703,0,0,1.5446,1.5462,1.5486,1.5503,1.5529,1.5541,1.5547,1.5572,1.5582,1.5614,1.5619,1.5641,1.5681,1.5699,1.5714,1.5748,1.575,1.5756,1.5769,1.579,1.5794,1.5797,1.581,1.5815,1.5759,1.5759,1.5759,0,1.5451,1.5486,1.5498,1.5524,1.5539,1.5546,1.5571,1.5587,1.5619,1.563,1.5625,1.5678,1.5695,1.5734,1.5743,1.5754,1.5762,1.5752,1.5792,1.5796,1.5799,1.5812,1.5817,1.5759,1.5759,1.5759,1.5759,0,1.5492,1.5517,1.5534,1.5565,1.5583,1.5608,1.5625,1.5641,1.5648,1.5661,1.5695,1.5715,1.5744,1.5754,1.576,1.5795,1.5792,1.5789,1.578,1.5804,1.5816,1.5821,1.576,1.576,1.576,1.576,0,0,1.5514,1.5554,1.556,1.5575,1.5605,1.5624,1.5651,1.5679,1.5694,1.5717,1.574,1.5776,1.5775,1.5791,1.5799,1.5818,1.5846,1.5813,1.5814,1.5819,1.5888,1.5889,1.5895,1.5848,1.5849,1.5849,1.5886,0,1.5542,1.5589,1.5603,1.5643,1.5667,1.5675,1.5698,1.572,1.5733,1.5756,1.5771,1.5797,1.5793,1.5803,1.5822,1.5838,1.586,1.5836,1.587,1.5871,1.5864,1.5901,1.5902,1.5935,1.5891,1.5891,1.5892,0,1.5581,1.5605,1.5648,1.5677,1.5687,1.5708,1.5737,1.5758,1.5784,1.5793,1.5812,1.582,1.5849,1.5839,1.5881,1.5864,1.588,1.589,1.5892,1.5895,1.5883,1.5906,1.5946,1.5951,1.59,1.5899,1.5898,0,1.5594,1.5637,1.5669,1.5682,1.5716,1.5731,1.5746,1.577,1.5788,1.5813,1.5824,1.5853,1.5868,1.5891,1.5906,1.5897,1.5947,1.5937,1.5956,1.5956,1.5965,1.5965,1.6009,1.5975,1.5975,1.5975,1.5975,0,1.5624,1.565,1.5676,1.5695,1.5725,1.5741,1.5771,1.5786,1.5809,1.5832,1.5841,1.5863,1.5882,1.5907,1.5919,1.5953,1.596,1.5968,1.5971,1.5968,1.5967,1.5977,1.5976,1.5976,1.5976,1.5976,1.5976,0,1.5643,1.5661,1.5697,1.5727,1.5735,1.5756,1.5783,1.5803,1.5818,1.5847,1.5855,1.5879,1.5909,1.5927,1.5965,1.5974,1.6011,1.6013,1.6002,1.6004,1.6021,1.602,1.6074,1.6083,1.6043,1.6043,1.6044,0,1.5661,1.5682,1.5715,1.5731,1.5747,1.5773,1.5791,1.5808,1.5827,1.5859,1.5876,1.5907,1.5932,1.598,1.6001,1.6031,1.6034,1.6051,1.6038,1.6034,1.6035,1.6033,1.6036,1.6053,1.6053,1.6054,1.6054,0,1.5692,1.57,1.5726,1.5755,1.5777,1.5801,1.5825,1.5838,1.5859,1.588,1.5911,1.5931,1.5971,1.6002,1.6034,1.6051,1.6056,1.6058,1.6064,1.606,1.6053,1.6058,1.6008,1.6056,1.6056,1.6056,1.6056,1.6056,1.5711,1.5731,1.5758,1.5786,1.5807,1.5829,1.585,1.5869,1.5895,1.5929,1.5938,1.5971,1.5998,1.6042,1.6059,1.6086,1.6084,1.6092,1.6094,1.6096,1.6097,1.605,1.6092,1.6092,1.6092,1.6092,1.6092,0,1.5743,1.5761,1.5788,1.5821,1.5845,1.5849,1.5876,1.5895,1.5925,1.595,1.5975,1.6012,1.6043,1.6068,1.61,1.6117,1.612,1.6125,1.6123,1.6128,1.6097,1.6089,1.6121,1.6121,1.6121,1.6121,1.6121,1.6121,1.5762,1.5795,1.5808,1.5852,1.587,1.5903,1.5919,1.594,1.5961,1.6002,1.6028,1.6044,1.6069,1.6103,1.6133,1.6139,1.6151,1.6155,1.6162,1.6133,1.6129,1.6126,1.6119,1.6157,1.6157,1.619,1.619,1.619]},{"header":{"parameterUnit":"m.s-1","parameterCategory":1,"la1":30.2991,"la2":30.254,"lo1":-89.0895,"lo2":-89.0444,"dy":0.0017,"dx":0.0017,"nx":28,"ny":28,"refTime":"2025-03-24T03:00:00:Z","depth":0,"parameterNumber":3,"parameterNumberName":"V-component_of_WINDS"},"data":[0,0,0,0,0,0,0,0,0,0,0,0,0,0,0,0,0,0,0,0,0,0,0,0,0,0,0,0,0,0,0,0,0,0,0,0,0,0,0,0,0,0,0,0,0,0,0,0,0,0,0,0,0,0,0,0,0,0,-0.4457,-0.4457,0,-0.4497,-0.4498,-0.4498,-0.4514,-0.4514,-0.4514,-0.4514,-0.4554,-0.4555,-0.4556,0,0,0,0,0,0,0,0,0,0,0,0,0,-0.4395,-0.4396,-0.4457,-0.4458,-0.4458,-0.4497,-0.4498,-0.4498,-0.4514,-0.4514,-0.4514,-0.4514,-0.4554,-0.4555,-0.4556,0,0,0,0,0,0,0,0,0,0,0,0,0,-0.4427,-0.4396,-0.4457,-0.4471,-0.4472,-0.4497,-0.4498,-0.4499,-0.4514,-0.4514,-0.4514,-0.4514,-0.4553,-0.4555,-0.4557,-0.4571,0,0,-0.4562,-0.4563,0,0,0,0,0,0,0,0,-0.4425,-0.4429,-0.4468,-0.447,-0.4472,-0.4501,-0.4491,-0.4523,-0.4514,-0.4498,-0.4514,-0.4514,-0.4536,-0.4539,-0.4547,-0.4573,-0.4574,-0.4562,-0.4563,-0.4564,-0.4565,0,0,0,0,0,0,0,-0.4423,-0.4428,-0.4473,-0.4469,-0.4471,-0.4475,-0.4479,-0.4497,-0.4518,-0.45,-0.4501,-0.4505,-0.4537,-0.4546,-0.4548,-0.4575,-0.4562,-0.4564,-0.4565,-0.4565,-0.4616,-0.4616,0,0,0,0,0,0,-0.4418,-0.4426,-0.4472,-0.4474,-0.4447,-0.4476,-0.4481,-0.4491,-0.4517,-0.4521,-0.4506,-0.4506,-0.4543,-0.4546,-0.455,-0.457,-0.4564,-0.4566,-0.4567,-0.4616,-0.4616,-0.4616,0,0,0,0,0,0,-0.4417,-0.4422,-0.447,-0.445,-0.4457,-0.4478,-0.4489,-0.4492,-0.4501,-0.4522,-0.4526,-0.451,-0.4543,-0.4547,-0.4566,-0.4571,-0.4566,-0.4568,-0.4615,-0.4616,-0.4616,-0.4608,0,0,0,0,0,0,-0.4415,-0.4422,-0.4427,-0.445,-0.4458,-0.4485,-0.4489,-0.4493,-0.4504,-0.4505,-0.4527,-0.4531,-0.4543,-0.4563,-0.4568,-0.4573,-0.4569,-0.4615,-0.4615,-0.4616,-0.4608,-0.4608,-0.4608,0,0,0,0,0,-0.4413,-0.4422,-0.4427,-0.4432,-0.4465,-0.4485,-0.449,-0.4504,-0.4504,-0.451,-0.4524,-0.453,-0.457,-0.4565,-0.457,-0.4576,-0.4615,-0.4615,-0.4616,-0.4608,-0.4608,-0.4608,0,0,0,0,0,0,-0.4398,-0.4425,-0.4431,-0.4448,-0.4465,-0.4488,-0.4495,-0.4503,-0.4519,-0.4519,-0.4536,-0.4541,-0.4558,-0.4569,-0.4563,-0.4592,-0.4593,-0.4594,-0.4585,-0.4585,-0.4585,-0.4582,-0.4571,0,0,0,0,0,-0.4397,-0.4411,-0.4434,-0.4448,-0.4456,-0.4474,-0.4484,-0.4493,-0.4511,-0.4517,-0.4533,-0.4549,-0.4566,-0.4576,-0.4592,-0.4609,-0.4615,-0.4616,-0.4617,-0.4617,-0.4618,-0.463,-0.4631,-0.4618,-0.4618,-0.4618,0,0,-0.4394,-0.4411,-0.4419,-0.4445,-0.4459,-0.4474,-0.448,-0.4495,-0.4507,-0.452,-0.4539,-0.455,-0.457,-0.4589,-0.4598,-0.4598,-0.4623,-0.4617,-0.4617,-0.4619,-0.4631,-0.4632,-0.4633,-0.4619,-0.4619,-0.4619,0,0,-0.4398,-0.4411,-0.4425,-0.4439,-0.446,-0.4473,-0.4476,-0.4499,-0.4508,-0.4527,-0.4538,-0.4552,-0.4579,-0.4593,-0.4604,-0.4615,-0.4622,-0.462,-0.4621,-0.4632,-0.4634,-0.4635,-0.464,-0.4641,-0.4621,-0.4621,-0.4621,0,-0.4392,-0.4415,-0.443,-0.4446,-0.4458,-0.4471,-0.4485,-0.4498,-0.4523,-0.4531,-0.4532,-0.4568,-0.4582,-0.4605,-0.4608,-0.4616,-0.4621,-0.4618,-0.4632,-0.4633,-0.4634,-0.464,-0.4642,-0.4621,-0.4621,-0.4621,-0.4621,0,-0.4408,-0.4424,-0.4432,-0.4457,-0.447,-0.4485,-0.4503,-0.4514,-0.4523,-0.4536,-0.4556,-0.4574,-0.4595,-0.4601,-0.4609,-0.4626,-0.4626,-0.4629,-0.463,-0.4635,-0.4641,-0.4643,-0.462,-0.4621,-0.4621,-0.4621,0,0,-0.4402,-0.4437,-0.4439,-0.4452,-0.4477,-0.449,-0.4506,-0.4527,-0.4537,-0.4554,-0.4569,-0.4593,-0.4597,-0.4609,-0.4619,-0.4629,-0.4639,-0.4632,-0.4632,-0.4634,-0.4661,-0.4659,-0.4661,-0.4644,-0.4645,-0.4645,-0.4659,0,-0.4409,-0.4439,-0.4454,-0.4477,-0.4493,-0.4507,-0.4521,-0.4539,-0.4552,-0.4567,-0.4582,-0.4599,-0.4602,-0.461,-0.462,-0.4636,-0.4645,-0.4635,-0.4658,-0.4659,-0.4654,-0.4663,-0.4661,-0.4673,-0.4661,-0.4662,-0.4662,0,-0.4422,-0.444,-0.4465,-0.4491,-0.4498,-0.451,-0.4532,-0.4547,-0.4567,-0.4576,-0.4591,-0.4602,-0.462,-0.4619,-0.4646,-0.4638,-0.4649,-0.4658,-0.4659,-0.4662,-0.4661,-0.4667,-0.4677,-0.468,-0.4665,-0.4665,-0.4665,0,-0.4416,-0.4447,-0.4467,-0.4477,-0.4507,-0.4516,-0.4528,-0.4549,-0.4561,-0.458,-0.4589,-0.4609,-0.4621,-0.4637,-0.4653,-0.4651,-0.4678,-0.4678,-0.4687,-0.4686,-0.4692,-0.4691,-0.4705,-0.4697,-0.4697,-0.4697,-0.4697,0,-0.4424,-0.4439,-0.4465,-0.4477,-0.4495,-0.4513,-0.453,-0.4544,-0.4563,-0.4578,-0.4591,-0.4606,-0.4626,-0.4643,-0.4656,-0.4676,-0.4681,-0.4689,-0.4693,-0.4689,-0.4688,-0.4696,-0.4696,-0.4698,-0.4698,-0.4698,-0.4698,0,-0.442,-0.4439,-0.4461,-0.4488,-0.4496,-0.4508,-0.4531,-0.4544,-0.4558,-0.4578,-0.4583,-0.4606,-0.4627,-0.4645,-0.4672,-0.4681,-0.4703,-0.4706,-0.4696,-0.4698,-0.4705,-0.4705,-0.4725,-0.4729,-0.4718,-0.4718,-0.4718,0,-0.4424,-0.4436,-0.4465,-0.4477,-0.449,-0.4508,-0.4522,-0.454,-0.4554,-0.4579,-0.4589,-0.4612,-0.463,-0.4664,-0.4682,-0.4704,-0.4708,-0.4714,-0.4712,-0.4708,-0.471,-0.4709,-0.4712,-0.4714,-0.4714,-0.4714,-0.4714,0,-0.4429,-0.4438,-0.4457,-0.448,-0.4495,-0.4514,-0.4533,-0.4542,-0.4564,-0.4578,-0.4601,-0.4615,-0.4645,-0.4667,-0.4691,-0.4704,-0.4714,-0.4715,-0.4719,-0.4715,-0.4709,-0.4714,-0.4697,-0.4715,-0.4715,-0.4715,-0.4715,-0.4715,-0.443,-0.4442,-0.4465,-0.4486,-0.4503,-0.4521,-0.4535,-0.4552,-0.4571,-0.4596,-0.4606,-0.4629,-0.4652,-0.4685,-0.4699,-0.4718,-0.4719,-0.4723,-0.4724,-0.4725,-0.4726,-0.4706,-0.4722,-0.4722,-0.4722,-0.4722,-0.4722,0,-0.4437,-0.4453,-0.4472,-0.4499,-0.4516,-0.4524,-0.4546,-0.456,-0.458,-0.46,-0.4619,-0.4646,-0.4668,-0.4689,-0.4713,-0.4724,-0.4729,-0.473,-0.4729,-0.4733,-0.4722,-0.4718,-0.4726,-0.4726,-0.4726,-0.4726,-0.4726,-0.4726,-0.4442,-0.4464,-0.4476,-0.4507,-0.4523,-0.4546,-0.4558,-0.4575,-0.4592,-0.4621,-0.464,-0.4654,-0.4676,-0.4701,-0.4723,-0.4728,-0.4737,-0.4737,-0.4744,-0.4734,-0.4733,-0.4733,-0.4729,-0.4738,-0.4738,-0.4753,-0.4753,-0.4753]}]]